Weather History for Cut Bank, MT

Change the Weather History Date:

Thursday, February 7, 2013

  Actual Average Record
Temperature  
Mean Temperature 39 °F 23 °F  
Max Temperature 53 °F 34 °F 65 °F (1954)
Min Temperature 24 °F 12 °F -39 °F (1936)
Degree Days  
Heating Degree Days 26 42  
Month to date heating degree days 177 294  
Since 1 July heating degree days 4920 5212  
Cooling Degree Days 0 0  
Month to date cooling degree days 0 0  
Year to date cooling degree days 0 0  
Moisture  
Dew Point 18 °F    
Average Humidity 54    
Maximum Humidity 81    
Minimum Humidity 26    
Precipitation  
Precipitation 0.00 in 0.00 in 0.15 in (1994)
Month to date precipitation 0.00 0.04  
Year to date precipitation 0.42 0.24  
Snow  
Snow 0.00 in - - ()
Snow Depth 0.00 in    
Sea Level Pressure  
Sea Level Pressure 29.94 in    
Wind  
Wind Speed 9 mph (SW)    
Max Wind Speed 21 mph    
Max Gust Speed 26 mph    
Visibility 10 miles    
Events      
T = Trace of Precipitation, MM = Missing Value Source: NWS Daily Summary

Daily Weather History Graph

Daily Weather History Graph

Search for Another Location

Airport:

Trip Planner

Search our weather history database for the weather conditions in past years. The results will help you decide how hot, cold, wet, or windy it might be!

Date:

Astronomy

Feb. 07, 2013 Rise Set
Actual Time 7:49 AM MST 5:38 PM MST
Civil Twilight 7:16 AM MST 6:11 PM MST
Nautical Twilight 6:39 AM MST 6:48 PM MST
Astronomical Twilight 6:02 AM MST 7:25 PM MST
Moon 5:40 AM MST (2/7) 3:00 PM MST (2/7)
Length of Visible Light 10h 54m
Length of Day
9h 48m
Waning Crescent, 8% of the Moon is Illuminated
Feb 7
Waning Crescent
Feb 10
New
Feb 17
First Quarter
Feb 25
Full
Mar 4
Last Quarter

Hourly Weather History & Observations

Time (MST) Temp. Windchill Dew Point Humidity Pressure Visibility Wind Dir Wind Speed Gust Speed Precip Events Conditions
12:56 AM 30.9 °F 22.2 °F 18.0 °F 59% 30.01 in 10.0 mi West 10.4 mph - N/A   Clear
1:56 AM 32.0 °F 27.5 °F 18.0 °F 56% 29.99 in 10.0 mi WSW 4.6 mph - N/A   Clear
2:56 AM 30.9 °F 24.3 °F 18.0 °F 59% 29.99 in 10.0 mi Variable 6.9 mph - N/A   Clear
3:56 AM 28.0 °F 21.7 °F 16.0 °F 61% 29.98 in 10.0 mi South 5.8 mph - N/A   Clear
4:56 AM 28.0 °F 24.2 °F 15.1 °F 58% 29.97 in 10.0 mi SE 3.5 mph - N/A   Clear
5:56 AM 25.0 °F 17.1 °F 15.1 °F 66% 29.99 in 10.0 mi SE 6.9 mph - N/A   Clear
6:56 AM 28.9 °F 25.2 °F 16.0 °F 58% 29.97 in 10.0 mi SSW 3.5 mph - N/A   Overcast
7:56 AM 28.0 °F 24.2 °F 17.1 °F 63% 29.97 in 10.0 mi SSE 3.5 mph - N/A   Overcast
8:56 AM 28.9 °F 21.9 °F 17.1 °F 61% 29.97 in 10.0 mi SE 6.9 mph - N/A   Mostly Cloudy
9:56 AM 30.0 °F 26.5 °F 18.0 °F 61% 29.96 in 10.0 mi East 3.5 mph - N/A   Clear
10:56 AM 43.0 °F 41.3 °F 17.1 °F 35% 29.94 in 10.0 mi SE 3.5 mph - N/A   Clear
11:56 AM 48.9 °F - 19.0 °F 31% 29.91 in 10.0 mi SSE 5.8 mph - N/A   Clear
12:56 PM 52.0 °F - 17.1 °F 25% 29.87 in 10.0 mi WSW 16.1 mph - N/A   Clear
1:56 PM 46.0 °F 39.3 °F 17.1 °F 31% 29.88 in 10.0 mi West 16.1 mph - N/A   Mostly Cloudy
2:56 PM 44.1 °F 37.4 °F 19.0 °F 37% 29.88 in 10.0 mi West 13.8 mph - N/A   Partly Cloudy
3:56 PM 48.0 °F - 19.0 °F 32% 29.88 in 10.0 mi WSW 17.3 mph - N/A   Partly Cloudy
4:56 PM 44.1 °F 37.4 °F 19.9 °F 38% 29.89 in 10.0 mi WSW 13.8 mph - N/A   Overcast
5:56 PM 36.0 °F 28.5 °F 19.9 °F 52% 29.94 in 10.0 mi WSW 10.4 mph - N/A   Partly Cloudy
6:56 PM 35.1 °F 26.4 °F 21.0 °F 57% 29.93 in 10.0 mi West 12.7 mph - N/A   Clear
7:56 PM 33.1 °F 25.5 °F 21.0 °F 61% 29.94 in 10.0 mi West 9.2 mph - N/A   Clear
8:56 PM 28.9 °F 21.9 °F 19.0 °F 67% 29.95 in 10.0 mi SW 6.9 mph - N/A   Clear
9:56 PM 30.0 °F 20.0 °F 19.9 °F 66% 29.95 in 10.0 mi West 12.7 mph - N/A   Clear
10:56 PM 25.0 °F 15.5 °F 19.0 °F 78% 29.92 in 10.0 mi West 9.2 mph - N/A   Clear
11:56 PM 27.0 °F 19.5 °F 19.9 °F 75% 29.91 in 10.0 mi West 6.9 mph - N/A   Clear